WJ4X-13 Weather Reports


Display with metric or nautical units.
time (UTC)temp
F
wind
direction
speed
MPH
gust
MPH
rain 1hr
in
rain 24hr
in
rain mn
in
humidity
%
barometer
mb
20260906064536 71 360 0.0 0.0 0.00 0.02 0.00 99 1012.0
20260906063034 71 360 0.0 0.0 0.00 0.02 0.00 99 1012.3
20260906061531 71 360 0.0 0.0 0.00 0.02 0.00 99 1012.6
20260906060030 71 360 0.0 0.0 0.00 0.02 0.00 99 1012.9
20260906054529 71 360 0.0 0.0 0.00 0.02 0.00 99 1012.9
20260906053027 71 360 0.0 0.0 0.00 0.02 0.00 99 1013.3
20260906051527 71 360 0.0 0.0 0.00 0.02 0.00 99 1013.4
20260906050023 72 360 0.0 0.0 0.00 0.02 0.00 99 1013.4
20260906044522 72 360 0.0 0.0 0.00 0.02 0.00 99 1013.3
20260906043029 72 360 0.0 0.0 0.00 0.02 0.00 99 1013.3
20260906041520 72 360 0.0 0.0 0.00 0.02 0.00 99 1013.3
20260906040018 72 360 0.0 0.0 0.00 0.02 0.00 99 1013.2
20260906034617 72 360 0.0 0.0 0.00 0.02 0.02 98 1013.2
20260906033018 72 360 0.0 0.0 0.00 0.02 0.02 98 1013.2
20260906031524 72 360 0.0 0.0 0.00 0.02 0.02 98 1013.2
20260906030014 73 360 0.0 0.0 0.00 0.02 0.02 98 1013.2
20260906024514 73 360 0.0 0.0 0.00 0.02 0.02 98 1013.1
20260906023014 73 360 0.0 0.0 0.00 0.02 0.02 97 1013.2
20260906021514 73 360 0.0 0.0 0.00 0.02 0.02 97 1013.3
20260906020013 73 360 0.0 0.0 0.00 0.02 0.02 97 1013.3
20260906014514 74 360 0.0 0.0 0.00 0.02 0.02 97 1013.3
20260906013012 74 360 0.0 0.0 0.00 0.02 0.02 96 1013.3
20260906011511 74 360 0.0 0.0 0.00 0.02 0.02 96 1013.1
20260906010010 75 360 0.0 0.0 0.00 0.02 0.02 96 1012.7
20260906004509 75 360 0.0 0.0 0.00 0.02 0.02 94 1012.3
20260906003008 75 360 0.0 0.0 0.00 0.02 0.02 94 1012.2
20260906001507 76 360 0.0 0.0 0.00 0.02 0.02 93 1012.4
20260906000009 77 360 0.0 0.0 0.00 0.02 0.02 91 1012.4
20260905234506 77 360 0.0 0.0 0.00 0.02 0.02 90 1012.2
20260905233005 78 360 0.0 0.0 0.00 0.02 0.02 89 1012.1
20260905231512 78 360 0.0 0.0 0.00 0.02 0.02 89 1012.0
20260905230004 79 360 0.0 0.0 0.00 0.02 0.02 89 1012.5
20260905224505 80 360 0.0 0.0 0.00 0.02 0.02 84 1012.3
20260905223006 80 360 0.0 0.0 0.00 0.02 0.02 84 1012.2
20260905221502 80 360 0.0 0.0 0.00 0.02 0.02 87 1011.9
20260905220002 78 360 0.0 0.0 0.00 0.02 0.02 88 1011.5
20260905214507 77 360 0.0 0.0 0.00 0.02 0.02 90 1011.5
20260905213001 76 360 0.0 0.0 0.00 0.02 0.02 91 1011.7
20260905211501 75 360 0.0 0.0 0.00 0.02 0.02 94 1012.3
20260905210117 74 360 0.0 0.0 0.02 0.02 0.02 92 1012.4
20260905204601 74 360 0.0 0.0 0.02 0.02 0.02 92 1012.9
20260905203101 75 360 0.0 0.0 0.02 0.02 0.02 89 1012.8
20260905201558 79 360 0.0 0.0 0.02 0.02 0.02 79 1012.4
20260905200119 87 360 0.0 0.0 0.00 0.00 0.00 62 1011.9
20260905194557 97 360 0.0 0.0 0.00 0.00 0.00 54 1011.3
20260905193056 98 360 0.0 0.0 0.00 0.00 0.00 53 1011.3
20260905191555 98 360 0.0 0.0 0.00 0.00 0.00 52 1011.4
20260905190055 97 360 0.0 0.0 0.00 0.00 0.00 54 1011.4
20260905184558 96 360 0.0 0.0 0.00 0.00 0.00 55 1011.5
20260905183048 96 360 0.0 0.0 0.00 0.00 0.00 56 1011.9
20260905181547 97 360 0.0 0.0 0.00 0.00 0.00 55 1012.2
20260905180043 96 360 0.0 0.0 0.00 0.00 0.00 58 1012.5
20260905174538 94 360 0.0 0.0 0.00 0.00 0.00 59 1012.9
20260905173045 95 360 0.0 0.0 0.00 0.00 0.00 60 1012.9
20260905171537 94 360 0.0 0.0 0.00 0.00 0.00 62 1013.0
20260905170032 94 360 0.0 0.0 0.00 0.00 0.00 64 1013.4
20260905164529 94 360 0.0 0.0 0.00 0.00 0.00 62 1013.7
20260905163024 92 360 0.0 0.0 0.00 0.00 0.00 68 1014.0
20260905161522 92 360 0.0 0.0 0.00 0.00 0.00 68 1014.1
20260905160019 91 360 0.0 0.0 0.00 0.00 0.00 68 1014.2
20260905154517 91 360 0.0 0.0 0.00 0.00 0.00 72 1014.2
20260905153025 89 360 0.0 0.0 0.00 0.00 0.00 71 1014.5
20260905151513 89 360 0.0 0.0 0.00 0.00 0.00 75 1014.5
20260905150019 88 360 0.0 0.0 0.00 0.00 0.00 78 1014.6
20260905144512 86 360 0.0 0.0 0.00 0.00 0.00 81 1014.7
20260905143005 84 360 0.0 0.0 0.00 0.00 0.00 84 1014.9
20260905141600 82 360 0.0 0.0 0.00 0.00 0.00 87 1014.9
20260905140056 81 360 0.0 0.0 0.00 0.00 0.00 88 1014.9
20260905134554 80 360 0.0 0.0 0.00 0.00 0.00 92 1014.9
20260905133048 78 360 0.0 0.0 0.00 0.00 0.00 96 1015.0
20260905131553 77 360 0.0 0.0 0.00 0.00 0.00 99 1015.0
20260905130042 75 360 0.0 0.0 0.00 0.00 0.00 100 1015.2
20260905124542 74 360 0.0 0.0 0.00 0.00 0.00 100 1015.2
20260905123101 73 360 0.0 0.0 0.00 0.00 0.00 100 1015.1
20260905121540 73 360 0.0 0.0 0.00 0.00 0.00 100 1014.9
20260905120040 72 360 0.0 0.0 0.00 0.00 0.00 100 1014.9
20260905114543 72 360 0.0 0.0 0.00 0.00 0.00 99 1014.7
20260905113039 72 360 0.0 0.0 0.00 0.00 0.00 99 1014.6
20260905111538 71 360 0.0 0.0 0.00 0.00 0.00 99 1014.4
20260905110037 72 360 0.0 0.0 0.00 0.00 0.00 99 1014.3
20260905104537 72 360 0.0 0.0 0.00 0.00 0.00 99 1014.3
20260905103045 72 360 0.0 0.0 0.00 0.00 0.00 99 1014.1
20260905101535 72 360 0.0 0.0 0.00 0.00 0.00 99 1014.0
20260905100048 72 360 0.0 0.0 0.00 0.00 0.00 99 1014.0
20260905094534 72 360 0.0 0.0 0.00 0.00 0.00 99 1014.0
20260905093032 72 360 0.0 0.0 0.00 0.00 0.00 99 1014.1
20260905091540 72 360 0.0 0.0 0.00 0.00 0.00 98 1014.1
20260905090028 72 360 0.0 0.0 0.00 0.00 0.00 98 1014.2
20260905084527 72 360 0.0 0.0 0.00 0.00 0.00 98 1014.2
20260905083028 72 360 0.0 0.0 0.00 0.00 0.00 98 1014.1
20260905081526 72 360 0.0 0.0 0.00 0.00 0.00 98 1014.2
20260905080029 73 360 0.0 0.0 0.00 0.00 0.00 98 1014.3
20260905074521 73 360 0.0 0.0 0.00 0.00 0.00 97 1014.4
20260905073025 73 360 0.0 0.0 0.00 0.00 0.00 97 1014.5
20260905071520 73 360 0.0 0.0 0.00 0.00 0.00 97 1014.4
20260905070024 73 360 0.0 0.0 0.00 0.00 0.00 97 1014.6